Location: Casa Rossa
(45.2389°N, 12.2056°E)
Time: 23:44:18
(UTC+00:00)

SL-8 R/B - Pass Details

Date: 14 July 2020
Orbit: 656 x 667 km, 48.4° (Epoch: 14 August)

Event Time Altitude Azimuth Distance (km) Brightness Sun altitude
Exits shadow 01:46:36 12° 266° (W) 1,977 5.8 -15.0°
Maximum altitude 01:51:07 67° 348° (NNW) 721 4.0 -14.5°
Drops below altitude 10° 01:55:54 10° 71° (ENE) 2,079 7.1 -14.0°
Sets 01:58:16 0° 75° (ENE) 2,990 8.0 -13.7°
